SPARK 2

导读 | 星芒AI

SPARK 2 是一颗由学生团队设计、建造和运营的小型卫星,旨在通过教育和科研任务推动航天技术的发展。该卫星主要用于测试新型通信系统、传感器和自主导航技术。SPARK 2 采用模块化设计,便于未来升级和任务扩展。其成功发射不仅提升了学生在航天工程领域的实践能力,也为相关研究提供了宝贵的数据支持。该项目体现了教育与航天技术融合的创新模式。

基本信息
目录编号:
41901
目录名称:
SPARK 2
国际标识:
2016-081D
轨道中心:
EARTH
卫星名称:
SPARK 2
卫星全名:
--
卫星状态:
在轨 (已飞行3281 天)
发射日期:
2016-12-21 UTC
国别 :
中国 (CN)
星等 :
--
轨道信息
数据来源 国际轨道数据
星历时间: 2025-12-15T06:20:24+0800
20小时前
查看轨道信息
半长轴: 7075.018km
偏心率: 0.0025598
轨道倾角: 98.532°
近地点辐角 170.039°
升交点赤经 328.450°
平近点角 190.132°
近地点: 678.772km
远地点: 714.994km
周期: 98.708分钟
每日圈数: 14.588528
详细信息
使用方式:
暂无
2D轨道图
3D轨道图
轨道高度分析图
轨道倾角分析图
轨道综合分析图
查看轨道综合分析图